| time (UTC) | temp F | wind direction | speed MPH | gust MPH | rain 1hr in | rain 24hr in | rain mn in | humidity % | barometer mb |
| 20260506190901 | 68 | 320 | 11.0 | 15.0 | 0.00 | 0.01 | 0.01 | 80 | 1012.9 |
| 20260506190357 | 68 | 15 | 4.0 | 5.0 | 0.00 | 0.01 | 0.01 | 79 | 1012.8 |
| 20260506185854 | 68 | 317 | 8.0 | 10.0 | 0.00 | 0.01 | 0.01 | 80 | 1012.9 |
| 20260506185352 | 68 | 117 | 6.0 | 9.0 | 0.00 | 0.01 | 0.01 | 79 | 1013.1 |
| 20260506184848 | 69 | 349 | 13.0 | 14.0 | 0.00 | 0.01 | 0.01 | 78 | 1013.1 |
| 20260506184345 | 69 | 354 | 11.0 | 14.0 | 0.00 | 0.01 | 0.01 | 76 | 1012.9 |
| 20260506183843 | 69 | 23 | 6.0 | 9.0 | 0.00 | 0.01 | 0.01 | 78 | 1012.9 |
| 20260506183338 | 69 | 345 | 5.0 | 7.0 | 0.00 | 0.01 | 0.01 | 79 | 1012.9 |
| 20260506182836 | 69 | 16 | 5.0 | 7.0 | 0.00 | 0.01 | 0.01 | 78 | 1012.9 |
| 20260506182333 | 69 | 314 | 10.0 | 14.0 | 0.00 | 0.01 | 0.01 | 78 | 1012.7 |
| 20260506181830 | 69 | 234 | 3.0 | 3.0 | 0.00 | 0.01 | 0.01 | 78 | 1012.7 |
| 20260506181328 | 69 | 18 | 6.0 | 7.0 | 0.00 | 0.01 | 0.01 | 78 | 1012.7 |
| 20260506180825 | 69 | 171 | 6.0 | 7.0 | 0.00 | 0.01 | 0.01 | 80 | 1012.6 |
| 20260506180321 | 69 | 168 | 1.0 | 2.0 | 0.00 | 0.01 | 0.01 | 78 | 1012.6 |
| 20260506175817 | 69 | 119 | 2.0 | 2.0 | 0.00 | 0.01 | 0.01 | 80 | 1012.5 |
| 20260506175314 | 69 | 125 | 0.0 | 0.0 | 0.00 | 0.01 | 0.01 | 79 | 1012.4 |
| 20260506174812 | 68 | 79 | 6.0 | 9.0 | 0.00 | 0.01 | 0.01 | 80 | 1012.4 |
| 20260506174309 | 67 | 113 | 0.0 | 0.0 | 0.00 | 0.01 | 0.01 | 81 | 1012.6 |
| 20260506173806 | 67 | 16 | 4.0 | 5.0 | 0.00 | 0.01 | 0.01 | 81 | 1012.4 |
| 20260506173303 | 67 | 137 | 0.0 | 0.0 | 0.00 | 0.01 | 0.01 | 79 | 1012.6 |
| 20260506172800 | 67 | 132 | 5.0 | 9.0 | 0.00 | 0.01 | 0.01 | 81 | 1012.6 |
| 20260506172256 | 67 | 124 | 2.0 | 3.0 | 0.00 | 0.01 | 0.01 | 82 | 1012.6 |
| 20260506171754 | 66 | 49 | 6.0 | 10.0 | 0.00 | 0.01 | 0.01 | 81 | 1012.4 |
| 20260506171251 | 65 | 141 | 1.0 | 2.0 | 0.00 | 0.01 | 0.01 | 84 | 1012.7 |
| 20260506170749 | 64 | 132 | 4.0 | 5.0 | 0.00 | 0.01 | 0.01 | 84 | 1012.6 |
| 20260506170245 | 63 | 82 | 4.0 | 7.0 | 0.00 | 0.01 | 0.01 | 86 | 1012.6 |
| 20260506165743 | 63 | 81 | 2.0 | 3.0 | 0.00 | 0.01 | 0.01 | 86 | 1012.5 |
| 20260506165240 | 62 | 47 | 2.0 | 3.0 | 0.00 | 0.01 | 0.01 | 89 | 1012.3 |
| 20260506164737 | 61 | 111 | 0.0 | 2.0 | 0.00 | 0.01 | 0.01 | 92 | 1013.0 |
| 20260506164234 | 59 | 108 | 2.0 | 3.0 | 0.00 | 0.01 | 0.01 | 94 | 1012.1 |
| 20260506163731 | 58 | 110 | 2.0 | 2.0 | 0.00 | 0.01 | 0.01 | 95 | 1012.5 |
| 20260506163225 | 58 | 95 | 8.0 | 10.0 | 0.00 | 0.01 | 0.01 | 94 | 1013.0 |
| 20260506162722 | 58 | 105 | 2.0 | 3.0 | 0.00 | 0.01 | 0.01 | 95 | 1014.5 |
| 20260506162220 | 58 | 322 | 4.0 | 7.0 | 0.00 | 0.01 | 0.01 | 95 | 1014.5 |
| 20260506161717 | 58 | 0 | 7.0 | 9.0 | 0.00 | 0.01 | 0.01 | 95 | 1014.7 |
| 20260506161214 | 59 | 0 | 8.0 | 9.0 | 0.00 | 0.01 | 0.01 | 95 | 1015.0 |
| 20260506160712 | 59 | 357 | 12.0 | 21.0 | 0.00 | 0.01 | 0.01 | 95 | 1014.9 |
| 20260506160208 | 59 | 308 | 8.0 | 10.0 | 0.00 | 0.01 | 0.01 | 95 | 1015.5 |
| 20260506155706 | 59 | 23 | 13.0 | 15.0 | 0.00 | 0.01 | 0.01 | 95 | 1015.3 |
| 20260506155203 | 60 | 347 | 12.0 | 14.0 | 0.00 | 0.01 | 0.01 | 95 | 1014.7 |
| 20260506153305 | 61 | 352 | 9.0 | 12.0 | 0.07 | 0.01 | 0.01 | 95 | 1014.3 |
| 20260506152802 | 61 | 82 | 11.0 | 14.0 | 0.07 | 0.01 | 0.01 | 95 | 1014.0 |
| 20260506152259 | 62 | 355 | 10.0 | 14.0 | 0.00 | 0.00 | 0.00 | 94 | 1013.8 |
| 20260506151758 | 62 | 353 | 4.0 | 7.0 | 0.00 | 0.00 | 0.00 | 93 | 1013.6 |
| 20260506151254 | 62 | 344 | 3.0 | 7.0 | 0.00 | 0.00 | 0.00 | 93 | 1013.5 |
| 20260506150751 | 62 | 41 | 4.0 | 7.0 | 0.00 | 0.00 | 0.00 | 92 | 1013.1 |
| 20260506150248 | 62 | 319 | 10.0 | 14.0 | 0.00 | 0.00 | 0.00 | 92 | 1012.9 |
| 20260506145745 | 62 | 72 | 6.0 | 9.0 | 0.00 | 0.00 | 0.00 | 93 | 1012.6 |
| 20260506145241 | 63 | 113 | 2.0 | 3.0 | 0.00 | 0.00 | 0.00 | 93 | 1012.6 |
| 20260506144739 | 63 | 84 | 3.0 | 5.0 | 0.00 | 0.00 | 0.00 | 93 | 1012.7 |
| 20260506144236 | 63 | 94 | 5.0 | 7.0 | 0.00 | 0.00 | 0.00 | 93 | 1012.9 |
| 20260506143733 | 64 | 291 | 12.0 | 15.0 | 0.00 | 0.00 | 0.00 | 93 | 1012.3 |
| 20260506143231 | 64 | 20 | 8.0 | 10.0 | 0.00 | 0.00 | 0.00 | 93 | 1012.4 |
| 20260506142729 | 65 | 354 | 8.0 | 10.0 | 0.00 | 0.00 | 0.00 | 92 | 1011.9 |
| 20260506142227 | 65 | 3 | 9.0 | 10.0 | 0.00 | 0.00 | 0.00 | 92 | 1011.9 |
| 20260506141725 | 66 | 11 | 14.0 | 19.0 | 0.00 | 0.00 | 0.00 | 92 | 1011.8 |
| 20260506141223 | 66 | 80 | 3.0 | 5.0 | 0.00 | 0.00 | 0.00 | 92 | 1011.7 |
| 20260506140720 | 66 | 93 | 8.0 | 12.0 | 0.00 | 0.00 | 0.00 | 92 | 1011.8 |
| 20260506140217 | 67 | 330 | 10.0 | 14.0 | 0.00 | 0.00 | 0.00 | 92 | 1011.5 |
| 20260506135713 | 68 | 333 | 9.0 | 17.0 | 0.00 | 0.00 | 0.00 | 91 | 1011.3 |
| 20260506135210 | 69 | 346 | 6.0 | 9.0 | 0.00 | 0.00 | 0.00 | 90 | 1011.2 |
| 20260506134707 | 72 | 20 | 10.0 | 12.0 | 0.00 | 0.00 | 0.00 | 88 | 1011.0 |
| 20260506134203 | 77 | 141 | 1.0 | 2.0 | 0.00 | 0.00 | 0.00 | 90 | 1011.1 |
| 20260506133700 | 77 | 135 | 2.0 | 2.0 | 0.00 | 0.00 | 0.00 | 90 | 1010.9 |
| 20260506133157 | 76 | 146 | 2.0 | 2.0 | 0.00 | 0.00 | 0.00 | 91 | 1010.5 |
| 20260506132654 | 76 | 120 | 4.0 | 5.0 | 0.00 | 0.00 | 0.00 | 91 | 1010.5 |
| 20260506132151 | 76 | 131 | 6.0 | 7.0 | 0.00 | 0.00 | 0.00 | 91 | 1010.3 |
| 20260506131649 | 76 | 138 | 3.0 | 3.0 | 0.00 | 0.00 | 0.00 | 92 | 1010.3 |
| 20260506131145 | 76 | 160 | 3.0 | 3.0 | 0.00 | 0.00 | 0.00 | 92 | 1010.2 |
| 20260506130641 | 75 | 168 | 4.0 | 5.0 | 0.00 | 0.00 | 0.00 | 92 | 1010.3 |
| 20260506130139 | 75 | 133 | 5.0 | 5.0 | 0.00 | 0.00 | 0.00 | 93 | 1010.2 |
| 20260506125637 | 75 | 120 | 5.0 | 7.0 | 0.00 | 0.00 | 0.00 | 94 | 1009.9 |
| 20260506125134 | 74 | 144 | 2.0 | 3.0 | 0.00 | 0.00 | 0.00 | 95 | 1010.1 |
| 20260506124632 | 74 | 150 | 2.0 | 2.0 | 0.00 | 0.00 | 0.00 | 95 | 1010.0 |
| 20260506124130 | 74 | 138 | 2.0 | 2.0 | 0.00 | 0.00 | 0.00 | 95 | 1010.0 |
| 20260506123627 | 73 | 155 | 1.0 | 2.0 | 0.00 | 0.00 | 0.00 | 96 | 1010.1 |
| 20260506123126 | 73 | 152 | 0.0 | 0.0 | 0.00 | 0.00 | 0.00 | 96 | 1010.0 |
| 20260506122622 | 73 | 149 | 0.0 | 0.0 | 0.00 | 0.00 | 0.00 | 96 | 1010.0 |
| 20260506122120 | 73 | 148 | 0.0 | 0.0 | 0.00 | 0.00 | 0.00 | 96 | 1010.0 |
| 20260506121617 | 73 | 149 | 0.0 | 0.0 | 0.00 | 0.00 | 0.00 | 95 | 1009.9 |
| 20260506121114 | 73 | 149 | 0.0 | 0.0 | 0.00 | 0.00 | 0.00 | 95 | 1010.0 |
| 20260506120612 | 73 | 149 | 0.0 | 0.0 | 0.00 | 0.00 | 0.00 | 95 | 1009.9 |
| 20260506120109 | 73 | 149 | 0.0 | 0.0 | 0.00 | 0.00 | 0.00 | 95 | 1009.8 |
| 20260506115607 | 73 | 149 | 0.0 | 0.0 | 0.00 | 0.00 | 0.00 | 94 | 1009.8 |
| 20260506115105 | 74 | 149 | 0.0 | 0.0 | 0.00 | 0.00 | 0.00 | 94 | 1009.9 |
| 20260506114602 | 74 | 156 | 0.0 | 0.0 | 0.00 | 0.00 | 0.00 | 94 | 1009.8 |
| 20260506114100 | 74 | 156 | 0.0 | 0.0 | 0.00 | 0.00 | 0.00 | 94 | 1010.0 |
| 20260506113558 | 74 | 156 | 0.0 | 0.0 | 0.00 | 0.00 | 0.00 | 94 | 1010.0 |
| 20260506113055 | 74 | 156 | 0.0 | 0.0 | 0.00 | 0.00 | 0.00 | 94 | 1010.0 |
| 20260506112551 | 74 | 145 | 0.0 | 0.0 | 0.00 | 0.00 | 0.00 | 93 | 1009.9 |
| 20260506112049 | 74 | 144 | 0.0 | 0.0 | 0.00 | 0.00 | 0.00 | 93 | 1009.8 |
| 20260506111547 | 74 | 145 | 0.0 | 0.0 | 0.00 | 0.00 | 0.00 | 93 | 1010.0 |
| 20260506111044 | 74 | 145 | 0.0 | 0.0 | 0.00 | 0.00 | 0.00 | 93 | 1009.8 |
| 20260506110541 | 74 | 144 | 0.0 | 0.0 | 0.00 | 0.00 | 0.00 | 93 | 1009.7 |
| 20260506110038 | 74 | 155 | 0.0 | 0.0 | 0.00 | 0.00 | 0.00 | 93 | 1009.8 |
| 20260506105534 | 74 | 155 | 0.0 | 0.0 | 0.00 | 0.00 | 0.00 | 93 | 1009.7 |
| 20260506105032 | 74 | 155 | 0.0 | 0.0 | 0.00 | 0.00 | 0.00 | 92 | 1009.7 |
| 20260506104530 | 75 | 155 | 0.0 | 0.0 | 0.00 | 0.00 | 0.00 | 92 | 1009.7 |
| 20260506104027 | 75 | 164 | 0.0 | 0.0 | 0.00 | 0.00 | 0.00 | 92 | 1009.5 |
| 20260506103524 | 75 | 166 | 0.0 | 2.0 | 0.00 | 0.00 | 0.00 | 92 | 1009.5 |
| 20260506103021 | 75 | 161 | 0.0 | 2.0 | 0.00 | 0.00 | 0.00 | 92 | 1009.3 |
| 20260506102520 | 75 | 158 | 0.0 | 0.0 | 0.00 | 0.00 | 0.00 | 92 | 1009.3 |
| 20260506102016 | 75 | 153 | 0.0 | 0.0 | 0.00 | 0.00 | 0.00 | 91 | 1009.4 |
| 20260506101513 | 75 | 163 | 2.0 | 3.0 | 0.00 | 0.00 | 0.00 | 91 | 1009.1 |
| 20260506101010 | 75 | 161 | 0.0 | 0.0 | 0.00 | 0.00 | 0.00 | 91 | 1009.2 |
| 20260506100508 | 75 | 155 | 0.0 | 0.0 | 0.00 | 0.00 | 0.00 | 91 | 1008.9 |
| 20260506100006 | 75 | 152 | 2.0 | 2.0 | 0.00 | 0.00 | 0.00 | 91 | 1008.9 |
| 20260506095505 | 75 | 148 | 4.0 | 5.0 | 0.00 | 0.00 | 0.00 | 91 | 1009.0 |
| 20260506095000 | 75 | 159 | 1.0 | 2.0 | 0.00 | 0.00 | 0.00 | 91 | 1008.9 |
| 20260506094459 | 75 | 184 | 6.0 | 9.0 | 0.00 | 0.00 | 0.00 | 91 | 1008.8 |
| 20260506093956 | 75 | 148 | 2.0 | 3.0 | 0.00 | 0.00 | 0.00 | 91 | 1008.7 |
| 20260506093454 | 75 | 156 | 0.0 | 2.0 | 0.00 | 0.00 | 0.00 | 91 | 1008.7 |
| 20260506092951 | 75 | 164 | 0.0 | 0.0 | 0.00 | 0.00 | 0.00 | 91 | 1008.8 |
| 20260506092449 | 75 | 160 | 0.0 | 0.0 | 0.00 | 0.00 | 0.00 | 91 | 1008.7 |
| 20260506091945 | 75 | 186 | 2.0 | 3.0 | 0.00 | 0.00 | 0.00 | 91 | 1008.7 |
| 20260506091444 | 75 | 160 | 2.0 | 3.0 | 0.00 | 0.00 | 0.00 | 91 | 1008.8 |
| 20260506090941 | 75 | 158 | 2.0 | 3.0 | 0.00 | 0.00 | 0.00 | 91 | 1008.7 |
| 20260506090439 | 75 | 182 | 6.0 | 10.0 | 0.00 | 0.00 | 0.00 | 91 | 1008.7 |
| 20260506085935 | 75 | 149 | 4.0 | 7.0 | 0.00 | 0.00 | 0.00 | 91 | 1008.6 |
| 20260506085432 | 75 | 172 | 6.0 | 7.0 | 0.00 | 0.00 | 0.00 | 91 | 1008.5 |
| 20260506084928 | 75 | 140 | 0.0 | 0.0 | 0.00 | 0.00 | 0.00 | 91 | 1008.7 |
| 20260506084425 | 75 | 162 | 4.0 | 5.0 | 0.00 | 0.00 | 0.00 | 91 | 1008.8 |
| 20260506083921 | 75 | 186 | 3.0 | 3.0 | 0.00 | 0.00 | 0.00 | 91 | 1008.7 |
| 20260506083419 | 75 | 163 | 2.0 | 3.0 | 0.00 | 0.00 | 0.00 | 91 | 1008.7 |
| 20260506082916 | 75 | 221 | 3.0 | 5.0 | 0.00 | 0.00 | 0.00 | 91 | 1008.7 |
| 20260506082413 | 75 | 177 | 1.0 | 2.0 | 0.00 | 0.00 | 0.00 | 91 | 1008.7 |
| 20260506081908 | 75 | 162 | 1.0 | 2.0 | 0.00 | 0.00 | 0.00 | 91 | 1008.8 |
| 20260506081407 | 75 | 173 | 3.0 | 3.0 | 0.00 | 0.00 | 0.00 | 90 | 1008.9 |
| 20260506080904 | 75 | 186 | 2.0 | 3.0 | 0.00 | 0.00 | 0.00 | 90 | 1008.8 |
| 20260506080400 | 75 | 169 | 2.0 | 3.0 | 0.00 | 0.00 | 0.00 | 90 | 1008.8 |
| 20260506073344 | 75 | 247 | 6.0 | 9.0 | 0.00 | 0.00 | 0.00 | 91 | 1009.0 |
| 20260506072841 | 75 | 169 | 3.0 | 3.0 | 0.00 | 0.00 | 0.00 | 91 | 1009.1 |
| 20260506072339 | 75 | 173 | 5.0 | 7.0 | 0.00 | 0.00 | 0.00 | 91 | 1009.0 |
| 20260506071837 | 75 | 161 | 2.0 | 3.0 | 0.00 | 0.00 | 0.00 | 91 | 1009.0 |
| 20260506071335 | 75 | 176 | 2.0 | 3.0 | 0.00 | 0.00 | 0.00 | 91 | 1009.0 |
| 20260506070831 | 75 | 155 | 2.0 | 2.0 | 0.00 | 0.00 | 0.00 | 91 | 1008.9 |
| 20260506070328 | 75 | 156 | 5.0 | 5.0 | 0.00 | 0.00 | 0.00 | 91 | 1009.0 |
| 20260506062306 | 75 | 157 | 1.0 | 2.0 | 0.00 | 0.00 | 0.00 | 92 | 1008.6 |
| 20260506061801 | 75 | 171 | 2.0 | 2.0 | 0.00 | 0.00 | 0.00 | 92 | 1008.7 |
| 20260506061258 | 75 | 176 | 4.0 | 5.0 | 0.00 | 0.00 | 0.00 | 92 | 1008.8 |
| 20260506060757 | 75 | 144 | 3.0 | 5.0 | 0.00 | 0.00 | 0.00 | 92 | 1008.5 |
| 20260506060254 | 75 | 163 | 3.0 | 5.0 | 0.00 | 0.00 | 0.00 | 92 | 1008.6 |
| 20260506051225 | 75 | 177 | 8.0 | 12.0 | 0.00 | 0.00 | 0.00 | 92 | 1008.6 |
| 20260506050724 | 75 | 160 | 4.0 | 5.0 | 0.00 | 0.00 | 0.00 | 92 | 1008.7 |
| 20260506050221 | 75 | 166 | 2.0 | 2.0 | 0.00 | 0.00 | 0.00 | 92 | 1008.6 |
| 20260506044712 | 75 | 193 | 1.0 | 2.0 | 0.00 | 0.00 | 0.00 | 91 | 1008.7 |
| 20260506044209 | 75 | 141 | 4.0 | 9.0 | 0.00 | 0.00 | 0.00 | 91 | 1008.8 |
| 20260506043707 | 75 | 149 | 4.0 | 5.0 | 0.00 | 0.00 | 0.00 | 91 | 1008.7 |
| 20260506043204 | 75 | 159 | 4.0 | 5.0 | 0.00 | 0.00 | 0.00 | 91 | 1008.9 |
| 20260506042703 | 75 | 182 | 4.0 | 5.0 | 0.00 | 0.00 | 0.00 | 91 | 1008.7 |
| 20260506042201 | 75 | 173 | 4.0 | 5.0 | 0.00 | 0.00 | 0.00 | 90 | 1008.7 |
| 20260506041659 | 75 | 162 | 2.0 | 3.0 | 0.00 | 0.00 | 0.00 | 90 | 1008.7 |
| 20260506041155 | 75 | 155 | 2.0 | 2.0 | 0.00 | 0.00 | 0.00 | 90 | 1008.7 |
| 20260506040653 | 76 | 144 | 3.0 | 5.0 | 0.00 | 0.00 | 0.00 | 90 | 1008.6 |
| 20260506040150 | 76 | 168 | 3.0 | 5.0 | 0.00 | 0.00 | 0.00 | 90 | 1008.6 |
| 20260506035647 | 76 | 150 | 6.0 | 7.0 | 0.00 | 0.00 | 0.00 | 89 | 1008.4 |
| 20260506035143 | 76 | 158 | 2.0 | 3.0 | 0.00 | 0.00 | 0.00 | 89 | 1008.3 |
| 20260506034640 | 76 | 173 | 4.0 | 5.0 | 0.00 | 0.00 | 0.00 | 89 | 1008.2 |
| 20260506034137 | 76 | 152 | 2.0 | 2.0 | 0.00 | 0.00 | 0.00 | 89 | 1008.1 |
| 20260506033635 | 76 | 138 | 2.0 | 3.0 | 0.00 | 0.00 | 0.00 | 89 | 1008.1 |
| 20260506033131 | 76 | 174 | 5.0 | 7.0 | 0.00 | 0.00 | 0.00 | 89 | 1007.9 |
| 20260506032629 | 76 | 167 | 4.0 | 5.0 | 0.00 | 0.00 | 0.00 | 89 | 1008.1 |
| 20260506032126 | 76 | 166 | 5.0 | 5.0 | 0.00 | 0.00 | 0.00 | 89 | 1008.0 |
| 20260506031623 | 76 | 160 | 2.0 | 3.0 | 0.00 | 0.00 | 0.00 | 89 | 1007.8 |
| 20260506031119 | 76 | 165 | 2.0 | 3.0 | 0.00 | 0.00 | 0.00 | 89 | 1008.0 |
| 20260506030618 | 76 | 160 | 2.0 | 2.0 | 0.00 | 0.00 | 0.00 | 88 | 1007.8 |
| 20260506030115 | 76 | 154 | 5.0 | 7.0 | 0.00 | 0.00 | 0.00 | 89 | 1007.5 |
| 20260506025612 | 77 | 134 | 6.0 | 9.0 | 0.00 | 0.00 | 0.00 | 88 | 1007.4 |
| 20260506025107 | 77 | 155 | 5.0 | 5.0 | 0.00 | 0.00 | 0.00 | 88 | 1007.4 |
| 20260506024605 | 77 | 161 | 0.0 | 0.0 | 0.00 | 0.00 | 0.00 | 88 | 1007.4 |
| 20260506024101 | 77 | 149 | 2.0 | 3.0 | 0.00 | 0.00 | 0.00 | 88 | 1007.4 |
| 20260506023557 | 77 | 148 | 0.0 | 0.0 | 0.00 | 0.00 | 0.00 | 88 | 1007.1 |
| 20260506023055 | 77 | 162 | 4.0 | 5.0 | 0.00 | 0.00 | 0.00 | 87 | 1007.0 |
| 20260506022552 | 77 | 161 | 7.0 | 9.0 | 0.00 | 0.00 | 0.00 | 87 | 1007.0 |
| 20260506022050 | 77 | 154 | 3.0 | 5.0 | 0.00 | 0.00 | 0.00 | 87 | 1006.9 |
| 20260506021547 | 77 | 153 | 2.0 | 2.0 | 0.00 | 0.00 | 0.00 | 87 | 1007.0 |
| 20260506021044 | 77 | 157 | 2.0 | 3.0 | 0.00 | 0.00 | 0.00 | 86 | 1006.8 |
| 20260506020542 | 77 | 158 | 2.0 | 2.0 | 0.00 | 0.00 | 0.00 | 86 | 1006.6 |
| 20260506020039 | 78 | 141 | 3.0 | 3.0 | 0.00 | 0.00 | 0.00 | 86 | 1006.9 |
| 20260506015536 | 78 | 162 | 6.0 | 9.0 | 0.00 | 0.00 | 0.00 | 85 | 1006.8 |
| 20260506015033 | 78 | 156 | 2.0 | 3.0 | 0.00 | 0.00 | 0.00 | 85 | 1006.5 |
| 20260506014530 | 78 | 164 | 4.0 | 5.0 | 0.00 | 0.00 | 0.00 | 86 | 1006.4 |
| 20260506014026 | 78 | 137 | 3.0 | 3.0 | 0.00 | 0.00 | 0.00 | 85 | 1006.6 |
| 20260506013525 | 78 | 160 | 3.0 | 5.0 | 0.00 | 0.00 | 0.00 | 84 | 1006.6 |
| 20260506013021 | 78 | 152 | 3.0 | 5.0 | 0.00 | 0.00 | 0.00 | 84 | 1006.5 |
| 20260506012517 | 78 | 155 | 2.0 | 3.0 | 0.00 | 0.00 | 0.00 | 84 | 1006.2 |
| 20260506012014 | 78 | 164 | 2.0 | 2.0 | 0.00 | 0.00 | 0.00 | 84 | 1006.5 |
| 20260506011512 | 79 | 148 | 0.0 | 0.0 | 0.00 | 0.00 | 0.00 | 84 | 1006.5 |
| 20260506011008 | 79 | 146 | 2.0 | 2.0 | 0.00 | 0.00 | 0.00 | 83 | 1006.4 |
| 20260506010507 | 80 | 150 | 0.0 | 0.0 | 0.00 | 0.00 | 0.00 | 82 | 1006.4 |
| 20260506010002 | 80 | 171 | 3.0 | 3.0 | 0.00 | 0.00 | 0.00 | 81 | 1006.3 |
| 20260506005500 | 80 | 151 | 3.0 | 3.0 | 0.00 | 0.00 | 0.00 | 81 | 1006.3 |
| 20260506004955 | 80 | 136 | 4.0 | 5.0 | 0.00 | 0.00 | 0.00 | 81 | 1006.3 |
| 20260506004454 | 80 | 155 | 0.0 | 0.0 | 0.00 | 0.00 | 0.00 | 80 | 1006.3 |
| 20260506003949 | 81 | 163 | 2.0 | 3.0 | 0.00 | 0.00 | 0.00 | 79 | 1006.4 |
| 20260506003446 | 81 | 173 | 2.0 | 3.0 | 0.00 | 0.00 | 0.00 | 79 | 1006.3 |
| 20260506002942 | 81 | 156 | 2.0 | 2.0 | 0.00 | 0.00 | 0.00 | 79 | 1006.5 |
| 20260506002438 | 81 | 165 | 2.0 | 2.0 | 0.00 | 0.00 | 0.00 | 79 | 1006.5 |
| 20260506001934 | 81 | 167 | 0.0 | 2.0 | 0.00 | 0.00 | 0.00 | 79 | 1006.6 |
| 20260506001431 | 81 | 168 | 1.0 | 2.0 | 0.00 | 0.00 | 0.00 | 79 | 1006.4 |
| 20260506000929 | 81 | 174 | 4.0 | 5.0 | 0.00 | 0.00 | 0.00 | 78 | 1006.3 |
| 20260506000426 | 82 | 163 | 1.0 | 2.0 | 0.00 | 0.00 | 0.00 | 78 | 1006.5 |
| 20260505235923 | 82 | 167 | 2.0 | 3.0 | 0.00 | 0.00 | 0.00 | 78 | 1006.3 |
| 20260505235421 | 82 | 165 | 2.0 | 3.0 | 0.00 | 0.00 | 0.00 | 77 | 1006.4 |
| 20260505234917 | 82 | 175 | 2.0 | 3.0 | 0.00 | 0.00 | 0.00 | 78 | 1006.2 |
| 20260505234415 | 82 | 159 | 4.0 | 5.0 | 0.00 | 0.00 | 0.00 | 77 | 1006.2 |
| 20260505233911 | 82 | 159 | 3.0 | 3.0 | 0.00 | 0.00 | 0.00 | 76 | 1006.2 |
| 20260505233409 | 82 | 160 | 2.0 | 3.0 | 0.00 | 0.00 | 0.00 | 77 | 1006.1 |
| 20260505232907 | 82 | 235 | 6.0 | 9.0 | 0.00 | 0.00 | 0.00 | 76 | 1006.0 |
| 20260505232404 | 82 | 192 | 3.0 | 3.0 | 0.00 | 0.00 | 0.00 | 76 | 1005.9 |
| 20260505231901 | 82 | 205 | 6.0 | 7.0 | 0.00 | 0.00 | 0.00 | 75 | 1006.1 |
| 20260505231358 | 83 | 172 | 2.0 | 3.0 | 0.00 | 0.00 | 0.00 | 76 | 1005.9 |
| 20260505230857 | 83 | 158 | 2.0 | 3.0 | 0.00 | 0.00 | 0.00 | 76 | 1005.8 |
| 20260505230354 | 83 | 189 | 4.0 | 5.0 | 0.00 | 0.00 | 0.00 | 75 | 1005.9 |
| 20260505225850 | 83 | 155 | 5.0 | 5.0 | 0.00 | 0.00 | 0.00 | 76 | 1005.8 |
| 20260505225348 | 83 | 186 | 8.0 | 12.0 | 0.00 | 0.00 | 0.00 | 74 | 1005.8 |
| 20260505224842 | 83 | 163 | 3.0 | 5.0 | 0.00 | 0.00 | 0.00 | 76 | 1006.0 |
| 20260505224341 | 83 | 170 | 10.0 | 12.0 | 0.00 | 0.00 | 0.00 | 74 | 1005.9 |
| 20260505223837 | 83 | 107 | 11.0 | 14.0 | 0.00 | 0.00 | 0.00 | 75 | 1005.8 |
| 20260505223334 | 83 | 208 | 1.0 | 3.0 | 0.00 | 0.00 | 0.00 | 75 | 1006.1 |
| 20260505222830 | 83 | 208 | 6.0 | 7.0 | 0.00 | 0.00 | 0.00 | 74 | 1005.9 |
| 20260505222326 | 83 | 186 | 6.0 | 7.0 | 0.00 | 0.00 | 0.00 | 74 | 1005.8 |
| 20260505221824 | 83 | 162 | 4.0 | 5.0 | 0.00 | 0.00 | 0.00 | 75 | 1006.1 |
| 20260505221320 | 82 | 236 | 8.0 | 12.0 | 0.00 | 0.00 | 0.00 | 74 | 1006.2 |
| 20260505220817 | 84 | 173 | 4.0 | 5.0 | 0.00 | 0.00 | 0.00 | 74 | 1006.0 |
| 20260505220314 | 83 | 161 | 4.0 | 5.0 | 0.00 | 0.00 | 0.00 | 76 | 1006.2 |
| 20260505215813 | 84 | 225 | 7.0 | 10.0 | 0.00 | 0.00 | 0.00 | 73 | 1006.2 |
| 20260505215310 | 84 | 196 | 4.0 | 5.0 | 0.00 | 0.00 | 0.00 | 74 | 1006.0 |
| 20260505214808 | 83 | 213 | 6.0 | 7.0 | 0.00 | 0.00 | 0.00 | 74 | 1006.2 |
| 20260505214305 | 82 | 160 | 4.0 | 7.0 | 0.00 | 0.00 | 0.00 | 75 | 1006.3 |
| 20260505213802 | 82 | 172 | 5.0 | 7.0 | 0.00 | 0.00 | 0.00 | 75 | 1006.4 |
| 20260505213300 | 84 | 175 | 6.0 | 7.0 | 0.00 | 0.00 | 0.00 | 73 | 1006.3 |
| 20260505212755 | 83 | 224 | 6.0 | 9.0 | 0.00 | 0.00 | 0.00 | 74 | 1006.5 |
| 20260505212253 | 83 | 166 | 6.0 | 7.0 | 0.00 | 0.00 | 0.00 | 74 | 1006.4 |
| 20260505211749 | 84 | 207 | 8.0 | 10.0 | 0.00 | 0.00 | 0.00 | 73 | 1006.4 |
| 20260505211247 | 83 | 210 | 5.0 | 7.0 | 0.00 | 0.00 | 0.00 | 74 | 1006.6 |
| 20260505210743 | 83 | 195 | 7.0 | 10.0 | 0.00 | 0.00 | 0.00 | 73 | 1006.6 |
| 20260505210240 | 82 | 177 | 3.0 | 5.0 | 0.00 | 0.00 | 0.00 | 77 | 1006.9 |
| 20260505205737 | 82 | 143 | 3.0 | 7.0 | 0.00 | 0.00 | 0.00 | 76 | 1006.8 |
| 20260505205235 | 83 | 215 | 7.0 | 10.0 | 0.00 | 0.00 | 0.00 | 74 | 1006.7 |
| 20260505204731 | 83 | 191 | 6.0 | 10.0 | 0.00 | 0.00 | 0.00 | 74 | 1006.8 |
| 20260505204229 | 83 | 188 | 8.0 | 10.0 | 0.00 | 0.00 | 0.00 | 74 | 1007.0 |
| 20260505203726 | 82 | 211 | 6.0 | 10.0 | 0.00 | 0.00 | 0.00 | 76 | 1007.1 |
| 20260505203223 | 84 | 186 | 6.0 | 7.0 | 0.00 | 0.00 | 0.00 | 75 | 1007.1 |
| 20260505202719 | 83 | 191 | 6.0 | 7.0 | 0.00 | 0.00 | 0.00 | 74 | 1007.3 |
| 20260505202215 | 83 | 236 | 4.0 | 7.0 | 0.00 | 0.00 | 0.00 | 75 | 1007.2 |
| 20260505201712 | 82 | 160 | 7.0 | 10.0 | 0.00 | 0.00 | 0.00 | 75 | 1007.3 |
| 20260505201210 | 82 | 216 | 4.0 | 5.0 | 0.00 | 0.00 | 0.00 | 77 | 1007.3 |
| 20260505200708 | 82 | 221 | 5.0 | 9.0 | 0.00 | 0.00 | 0.00 | 75 | 1007.5 |
| 20260505200204 | 82 | 200 | 11.0 | 15.0 | 0.00 | 0.00 | 0.00 | 75 | 1007.6 |
| 20260505195700 | 82 | 158 | 3.0 | 7.0 | 0.00 | 0.00 | 0.00 | 76 | 1007.6 |
| 20260505195158 | 82 | 179 | 7.0 | 10.0 | 0.00 | 0.00 | 0.00 | 76 | 1007.7 |
| 20260505194655 | 82 | 182 | 8.0 | 10.0 | 0.00 | 0.00 | 0.00 | 76 | 1007.8 |
| 20260505194151 | 81 | 150 | 2.0 | 2.0 | 0.00 | 0.00 | 0.00 | 78 | 1007.8 |
| 20260505193647 | 81 | 205 | 8.0 | 10.0 | 0.00 | 0.00 | 0.00 | 77 | 1007.8 |
| 20260505193144 | 81 | 234 | 4.0 | 10.0 | 0.00 | 0.00 | 0.00 | 79 | 1007.9 |
| 20260505192643 | 80 | 196 | 9.0 | 10.0 | 0.00 | 0.00 | 0.00 | 78 | 1008.1 |
| 20260505192140 | 80 | 246 | 9.0 | 12.0 | 0.00 | 0.00 | 0.00 | 78 | 1008.0 |
| 20260505191639 | 80 | 202 | 4.0 | 5.0 | 0.00 | 0.00 | 0.00 | 79 | 1008.1 |